AEROCUBE 15B (45117 NORAD) Tracking and Keplerian Element Data

This shows tracking and keplerian element data for the satellite.

Feedback or suggestion? Click here.




ElementValue
Catalog45117
NameAEROCUBE 15B
Epoch Orbit245
Epoch Day47.7825091
Epoch Year2020
RAAN231.0648
Inclination51.6427
Eccentricity0.0010927
Argument of Perigee341.6851
Mean Anonmoly18.3736
Mean Motion15.33135236
Decay Rate1.561E-05
L11 45117U 19071G 20047.78250910 .00001561 00000-0 59582-4 0 9997
L22 45117 51.6427 231.0648 0010927 341.6851 18.3736 15.33135236 2457

Live tracking and technical data element details for AEROCUBE 15B (NORAD 45117). AEROCUBE 15B can be tracked NOW for your location showing map with azimuth and elevation plus other details from your city location.

Track the satellite on the map from your city or location and see movement details for azimuth, elevation, latitude, longitude, range, height, and movement on the map or in text.







IsCatalogInMostPopularTable: catalog: 45117, numindb: 4
Update: records affected: 1



GetName: 45117 AEROCUBE 15B

Hit Count: updated at: Tue, 18 Feb 2020 00:10:52 GMT